Find Kosmos-2604

NORAD ID: 67678 Int'l Des: 2026-023 Owner: VVKOV Country: RU operational
LEOCIRCULARRETROGRADE

現在のビュー

3D地球を読み込み中...

Kosmos-2604について

説明を読み込み中...

次回通過

Passes for default location (London). Set your location on the main map for personalized predictions.

高度履歴

Loading altitude history...

軌道要素

1 67678U 26023E 26146.12863456 .00010999 00000-0 44361-3 0 9990
2 67678 96.6223 210.1091 0017637 205.7151 154.3213 15.24806649 16644
Epoch: May 26, 2026 • Age: 15 hours

現在のステータス

高度 492.0 km
速度 7.62 km/s
衛星直下点 -33.25°S, 130.92°W
打ち上げ日 Feb 5, 2026
運用期間 0.3 years
タイプ other

技術仕様

分類 Payload
質量 500.00 kg
乾燥質量 500.00 kg
総質量 500.00 kg
長さ 3.00 m
直径 1.30 m
スパン 3.00 m
形状 Cyl + 2 Pan
製造者 UNKRU
バスタイプ Unk
フェーズステータス In Orbit
所有者/国 VVKOV/RU

Most Searched